Helicity
0 20 47 37 71 106 43 42 51 39 63 10 61 76 72 121 122 106 105 65 77 54 67 66 63 65 74 90 84 65 58 57 69 65 70 72 65 59 64 107 71 94 111 79
7 7 51 66 83 78 54 60 45 68 42 17 31 30 67 103 61 59 50 38 55 71 87 39 63 61 56 66 69 28 16 36 73 59 39 46 39 30 49 58 74 68 111 103
7 8 40 75 79 71 39 51 57 35 35 19 17 39 45 46 59 56 48 40 54 52 58 54 45 51 61 93 90 85 50 38 51 57 62 46 50 36 44 63 56 55 82 86
13 3 17 72 86 62 22 20 21 3 7 23 46 40 38 19 28 41 45 22 47 31 10 16 38 39 36 71 104 77 62 42 38 39 46 48 51 38 22 43 58 53 79 71
17 11 5 40 88 57 5 13 13 -28 -16 17 -5 16 58 56 21 34 45 24 46 43 33 45 34 37 41 37 50 66 68 25 35 28 23 26 42 29 19 17 23 32 49 100
23 20 7 10 48 54 5 14 11 5 -8 -28 -37 -20 -2 33 38 28 47 27 19 41 49 53 86 62 34 28 39 63 54 31 35 30 40 41 47 36 34 37 50 58 47 81
25 28 13 12 11 30 0 7 22 27 22 1 -11 -1 4 8 8 -1 23 39 36 21 58 64 55 58 54 62 77 56 37 34 25 36 39 47 43 45 32 29 43 20 59 77
29 34 33 9 10 8 13 12 21 31 20 13 5 13 5 14 11 4 3 28 19 0 27 43 43 40 29 54 70 67 51 41 31 40 38 52 29 30 30 45 97 49 50 81
47 34 29 14 13 17 -3 8 27 23 24 34 26 8 16 4 3 12 10 9 10 -6 15 36 33 33 33 38 35 48 45 43 34 35 45 43 38 55 39 52 68 73 41 50
59 41 31 15 21 22 15 15 11 35 35 35 37 37 37 27 21 -2 2 18 16 20 22 42 33 30 33 29 35 32 36 32 30 30 42 36 28 36 46 51 66 77 34 32
74 38 29 16 19 29 25 20 25 38 58 56 46 58 51 46 36 38 41 13 7 24 16 19 30 23 27 27 33 29 22 31 34 35 40 46 49 63 27 56 59 80 33 11
93 57 21 17 26 21 38 41 23 30 42 51 43 38 37 22 53 59 59 48 33 27 31 25 31 32 30 36 42 35 28 32 41 25 50 61 52 71 45 22 63 69 35 20
85 66 34 36 38 23 22 40 37 18 -8 9 38 28 57 41 22 35 56 61 77 44 57 43 39 36 33 29 27 35 17 17 27 38 32 1 11 4 37 47 56 39 52 28
60 72 50 39 31 3 14 61 55 43 35 36 32 84 97 124 88 59 20 97 115 87 66 52 37 27 27 30 42 31 45 29 25 17 -14 -3 6 33 56 67 34 13 36 27
33 58 46 29 -6 17 50 52 85 86 90 101 51 57 58 69 92 76 79 73 94 90 74 60 38 51 28 40 30 19 62 46 51 38 34 51 36 43 20 10 52 20 41 18
44 35 31 8 19 41 36 -5 70 54 97 109 50 107 84 110 97 94 88 98 101 93 83 66 68 74 48 23 19 32 26 24 35 59 74 37 47 73 66 45 54 51 24 18
82 21 15 3 35 76 93 99 95 36 54 93 116 125 40 62 93 83 84 89 106 88 60 80 86 71 78 78 68 45 42 51 80 72 73 44 36 36 51 61 70 66 51 49
78 19 7 14 15 53 81 96 45 48 26 8 81 73 18 20 68 52 48 88 78 80 102 97 76 83 112 59 27 62 107 99 90 92 105 67 33 42 55 50 59 63 58 52
84 17 15 41 66 44 16 -11 71 61 -23 -46 -31 -9 -2 34 56 46 76 74 92 87 71 75 72 96 106 83 48 44 63 84 82 77 53 50 56 51 55 62 63 51 58 45
75 23 28 32 41 31 42 24 21 -7 -26 -18 -9 20 33 41 62 94 54 90 68 48 37 59 68 96 107 108 116 122 91 92 80 55 51 66 57 37 32 42 44 42 38 44
78 38 33 52 47 31 9 8 2 3 -18 -11 -14 -9 24 22 85 96 92 62 60 43 47 54 46 54 76 85 98 95 65 45 37 21 25 23 26 36 44 51 31 13 24 21
50 45 27 29 49 29 48 47 40 27 18 -9 1 9 16 41 52 65 62 47 36 26 46 37 26 59 48 43 51 56 47 44 40 38 34 38 28 23 17 20 22 15 2 -6
53 52 47 45 46 50 77 55 76 40 11 7 12 18 32 35 45 48 41 22 19 55 17 32 34 30 31 29 31 36 36 33 39 49 55 57 51 45 31 31 37 48 40 36
79 48 44 49 43 48 64 78 78 44 30 21 42 16 46 51 38 44 32 38 37 10 12 8 25 18 6 11 10 3 1 -8 8 34 51 70 61 50 44 44 58 72 74 76
72 44 43 50 62 57 54 38 61 50 41 35 43 21 39 56 53 52 41 20 7 4 8 -1 7 5 15 13 7 8 0 -27 -56 -28 10 36 47 31 36 48 51 55 62 69
73 59 63 58 53 41 48 57 64 48 37 23 45 50 23 46 60 50 41 42 16 14 10 26 45 26 22 37 37 22 16 8 -5 -17 -25 -13 27 61 68 46 54 45 49 44
57 45 37 54 63 51 61 69 72 72 54 81 82 67 79 70 65 85 78 53 49 41 28 18 29 73 91 67 51 44 30 20 12 -4 -10 -6 -4 9 62 97 104 30 14 15
Wind_Speed
58 41 33 23 32 40 35 37 50 26 29 32 30 30 28 26 26 37 34 35 27 38 36 31 33 37 37 35 30 27 27 27 39 40 34 35 40 45 44 42 40 36 34 34
66 55 43 38 47 36 26 40 32 28 29 26 20 26 27 26 23 24 26 30 31 30 33 34 31 32 28 30 31 30 28 28 34 39 42 40 46 44 38 32 32 41 40 34
70 74 42 43 52 49 36 38 39 25 31 21 19 17 18 28 21 17 24 27 31 33 28 25 35 30 32 31 26 23 27 28 34 38 36 33 43 40 43 43 45 37 40 36
69 77 50 48 56 51 35 40 44 23 34 19 22 19 21 26 26 21 18 22 23 32 36 32 31 30 26 26 30 29 29 27 28 28 28 29 34 39 39 44 36 39 38 34
65 73 70 56 60 52 43 36 37 34 22 18 17 22 23 21 25 24 23 20 20 23 28 32 35 27 31 31 33 29 29 27 29 31 32 35 38 35 34 42 45 51 48 57
62 68 68 63 63 57 39 36 21 31 38 29 24 22 22 25 29 25 24 27 25 23 26 26 23 29 26 28 31 32 32 29 32 36 34 36 40 44 40 35 37 43 47 44
63 64 66 60 59 57 39 35 28 29 29 33 30 27 25 25 25 27 29 27 26 17 19 19 16 16 19 20 25 35 32 32 34 34 32 36 31 37 37 46 45 53 51 53
57 60 61 62 58 56 47 41 32 28 21 32 33 34 32 30 29 26 24 22 20 24 25 23 26 29 29 25 26 31 36 35 32 35 37 36 32 30 30 28 30 43 53 51
52 57 56 58 57 55 50 42 42 30 23 17 37 38 37 34 33 30 27 27 27 25 29 30 30 34 33 33 31 31 31 30 36 35 37 35 32 29 28 30 28 29 29 41
48 52 50 54 54 51 49 42 46 36 30 26 23 36 38 37 36 35 32 32 29 32 34 33 32 32 34 34 35 34 34 36 42 42 41 41 37 34 29 35 26 30 38 43
47 48 49 49 50 51 45 41 42 43 43 44 26 39 42 41 38 37 35 34 33 32 34 34 33 36 34 37 34 34 34 33 36 37 42 44 24 26 33 31 31 41 42 42
44 51 46 42 50 49 40 44 42 44 45 48 45 55 64 56 49 43 40 39 36 35 31 34 32 35 34 38 40 36 39 36 35 35 37 30 26 32 37 38 41 40 39 39
48 50 47 46 49 51 49 48 48 51 55 63 47 46 56 55 68 35 44 40 38 37 35 36 36 38 36 39 43 39 39 36 40 40 38 45 45 47 43 33 38 37 39 40
50 49 47 50 45 43 51 46 47 49 51 53 54 44 46 41 41 28 35 41 37 38 36 39 38 38 35 39 40 41 38 29 39 48 54 53 48 37 34 40 45 43 43 42
54 52 49 48 57 51 53 54 48 40 40 55 62 68 53 39 30 31 43 49 47 41 38 38 41 36 37 39 42 49 37 43 44 51 48 45 43 42 49 53 55 55 51 44
56 54 52 52 54 53 51 52 41 32 26 45 53 51 47 33 31 27 28 37 43 41 41 41 40 36 38 44 42 41 37 36 38 43 41 46 49 51 45 51 51 49 51 45
54 53 56 55 47 43 40 43 45 35 16 41 48 42 36 26 24 30 30 29 39 43 45 46 43 41 38 52 57 48 46 43 42 46 48 50 45 49 55 54 53 50 48 45
53 48 57 56 52 42 38 21 26 24 24 31 39 40 34 16 24 28 25 26 32 39 45 43 45 45 46 62 54 50 41 41 46 41 47 54 62 61 58 53 52 53 55 52
45 47 56 41 35 33 33 26 14 17 21 28 27 31 27 20 20 23 24 29 32 34 43 44 44 46 51 50 46 42 40 43 39 43 52 57 57 57 59 57 56 59 59 57
40 37 34 34 29 24 27 28 24 20 19 15 22 37 36 51 42 31 19 24 26 29 38 37 50 62 54 45 40 37 41 43 44 57 59 54 61 62 63 65 64 64 64 61
33 31 32 28 24 25 24 23 18 22 23 44 43 44 40 37 38 34 33 25 26 35 34 36 44 48 39 34 37 40 43 42 44 46 52 55 59 62 65 67 68 69 68 68
31 30 28 27 29 24 28 31 20 17 33 41 40 41 42 36 32 27 24 26 28 35 26 32 39 36 30 33 35 37 39 42 45 47 51 54 56 58 62 65 68 70 69 66
29 30 28 31 27 28 36 40 26 35 39 38 38 36 31 32 33 29 27 31 35 29 36 42 39 31 31 32 33 33 36 42 46 49 50 51 52 53 54 57 57 58 59 57
27 27 34 31 29 32 39 43 36 42 42 40 37 34 34 30 31 31 31 30 29 39 38 37 36 26 25 27 28 30 34 40 43 44 44 45 46 49 49 48 48 47 46 44
29 29 38 36 37 38 39 42 42 42 45 43 41 36 35 37 34 34 33 31 35 36 37 36 26 22 23 24 26 29 34 39 42 41 40 41 43 44 44 44 44 42 41 40
31 30 35 36 40 44 46 44 43 40 44 44 43 43 43 43 38 37 37 37 37 35 36 29 19 21 23 24 26 30 35 40 42 41 42 41 42 42 42 40 39 40 40 40
30 36 35 39 42 45 42 42 42 40 44 42 41 42 44 39 45 46 37 39 37 33 27 18 17 18 22 25 28 32 37 40 43 44 44 44 43 41 41 40 40 38 36 35
Wind_Direction
20 319 323 335 318 318 70 79 59 101 110 120 130 122 138 153 162 158 164 172 173 189 197 205 211 207 216 228 246 260 274 263 238 246 266 264 255 247 246 252 256 265 268 272
14 321 318 316 317 315 80 65 88 102 116 143 148 137 151 155 170 181 190 190 191 196 202 210 217 223 231 235 248 254 258 269 252 257 261 261 253 253 259 268 274 262 265 272
8 334 318 314 319 318 64 63 66 124 118 159 195 190 179 169 183 189 191 194 203 207 217 233 217 230 243 259 269 278 271 268 260 257 268 269 258 260 255 256 260 268 267 274
4 345 320 317 323 323 65 63 68 79 67 273 275 244 211 192 187 205 241 223 235 225 224 237 240 247 259 267 257 263 267 269 272 277 281 277 270 262 258 257 269 270 274 270
4 349 336 323 328 329 52 64 70 18 281 242 261 294 286 278 222 241 230 246 257 255 240 245 242 257 254 258 254 263 267 274 274 271 275 269 266 267 265 260 260 261 266 261
1 352 338 331 336 349 40 51 39 41 3 308 300 287 264 265 256 272 271 249 266 287 277 267 266 261 272 267 263 262 267 270 266 260 266 263 259 254 258 262 263 260 257 260
353 349 342 326 334 350 23 28 50 50 59 343 320 287 267 277 290 285 277 282 279 319 310 322 344 329 311 295 276 248 257 259 261 262 265 253 265 259 254 249 257 248 253 252
354 348 346 331 330 341 349 3 8 20 54 342 315 295 290 277 292 306 309 302 304 303 268 275 270 269 265 278 266 252 242 247 258 255 256 264 266 265 262 266 273 246 235 248
356 345 347 336 329 332 339 350 344 354 10 37 305 292 286 291 289 292 298 311 304 291 271 264 268 259 258 257 262 259 256 264 253 256 258 262 271 273 274 274 280 289 294 280
358 345 344 337 330 334 341 344 338 339 338 337 339 295 289 284 284 282 292 292 297 282 268 269 273 270 262 261 259 263 260 262 254 257 260 263 266 273 288 272 287 298 292 286
353 346 341 339 333 327 339 346 340 327 319 310 318 290 283 282 282 280 283 281 286 281 275 276 279 272 272 267 273 272 269 272 272 273 266 265 300 296 277 289 298 285 281 287
347 340 341 341 325 323 338 329 331 328 311 306 306 281 266 268 270 274 272 271 269 267 285 279 285 281 279 274 272 277 273 277 281 280 280 295 300 290 291 293 284 288 292 295
334 334 336 336 330 318 315 317 318 314 304 295 303 296 276 271 248 278 271 274 278 277 280 275 281 280 282 277 272 279 281 285 279 283 288 275 279 283 290 297 287 293 295 296
320 327 331 327 332 329 316 316 316 311 310 306 298 302 287 286 275 258 264 275 285 286 290 281 281 286 291 285 285 282 286 297 285 277 272 272 283 287 299 292 278 283 287 291
308 315 324 329 309 319 317 311 312 309 307 297 292 279 286 283 278 263 260 264 272 282 285 287 283 294 297 297 293 281 291 285 283 279 283 283 284 288 289 283 273 270 277 287
299 307 316 316 315 315 322 319 328 330 311 308 300 292 288 285 272 263 259 263 267 277 281 285 290 298 296 291 292 294 297 297 294 290 297 289 286 285 297 287 279 278 272 282
294 304 306 310 322 326 325 326 324 345 339 312 303 301 303 282 273 267 268 266 270 272 278 280 284 290 294 285 282 293 293 298 298 295 291 286 293 288 284 283 277 277 274 279
292 307 300 306 311 324 326 336 345 6 331 326 306 300 300 282 269 268 268 272 269 274 274 283 282 287 288 280 287 293 300 303 298 298 291 288 283 279 279 283 281 276 270 275
299 306 295 317 328 338 352 15 74 31 348 329 329 322 317 284 291 263 271 274 280 283 276 280 285 282 278 290 295 294 301 301 303 302 293 288 283 282 279 278 278 272 271 273
305 315 311 317 331 7 26 31 34 44 49 31 342 236 240 202 231 244 277 277 288 295 287 292 279 276 283 292 301 305 306 306 306 292 288 291 284 282 279 275 274 272 270 271
306 301 305 326 342 344 8 12 41 81 81 210 214 221 225 245 238 244 257 286 301 296 301 292 290 287 297 303 302 304 305 309 307 304 298 294 287 282 278 276 275 272 270 268
299 300 318 327 309 336 331 303 325 330 276 231 236 247 233 240 244 263 295 306 317 309 321 306 300 305 313 309 307 309 311 308 307 307 302 297 291 287 284 282 276 273 270 270
298 301 316 301 317 315 298 276 294 275 256 256 256 251 265 261 268 293 306 299 293 316 281 278 296 310 305 309 315 320 317 315 311 307 304 300 294 293 293 289 287 282 276 274
298 302 293 299 312 310 286 275 281 261 260 261 255 274 268 279 272 278 286 299 306 272 277 279 271 305 313 322 322 332 327 329 328 319 309 303 298 295 296 297 295 292 286 283
295 307 294 298 301 301 300 281 277 268 260 268 266 271 270 266 276 273 282 290 279 279 274 282 318 322 339 340 338 339 350 348 343 329 323 316 309 306 302 302 299 297 293 289
307 315 305 305 300 289 285 279 275 277 270 268 267 263 262 265 271 272 272 279 281 292 298 323 352 338 341 352 351 343 342 346 337 325 329 324 322 319 312 308 310 308 301 295
316 311 307 299 297 290 291 279 280 287 274 272 275 269 264 271 266 269 283 290 298 314 340 20 35 25 357 344 336 333 331 336 333 324 322 323 323 321 319 317 307 309 311 312